Saint Bonnet de Bellac- Haute Vienne - France
Donnes mto: vendredi, 20/04/2012
Date Horaire Temp. E. Hum. E. P.atmo. Pluie Vent Direction Direction Ensoleilleme Solaire P. de rose Temp au vent Rafales
20/04/2012 00:00 5,9 C 87 % 998,4 hPa 0,0 mm 5,0 km/h (1 Bft) S-SO 202 0 min 0 W/m 3,9 C 5,1 C 7,6 km/h (2 Bft)
20/04/2012 00:10 5,9 C 87 % 998,3 hPa 0,0 mm 11,2 km/h (2 Bft) O-SO 247 0 min 0 W/m 3,9 C 3,5 C 11,2 km/h (2 Bft)
20/04/2012 00:20 6,1 C 87 % 998,4 hPa 0,0 mm 9,7 km/h (2 Bft) SO 225 0 min 0 W/m 4,1 C 4,0 C 13,3 km/h (3 Bft)
20/04/2012 00:30 6,1 C 87 % 998,3 hPa 0,0 mm 5,4 km/h (2 Bft) SO 225 0 min 0 W/m 4,1 C 5,2 C 9,4 km/h (2 Bft)
20/04/2012 00:40 6,1 C 86 % 998,3 hPa 0,0 mm 8,6 km/h (2 Bft) SO 225 0 min 0 W/m 3,9 C 4,3 C 13,0 km/h (3 Bft)
20/04/2012 00:50 6,1 C 86 % 998,2 hPa 0,0 mm 10,1 km/h (2 Bft) S-SO 202 0 min 0 W/m 3,9 C 4,0 C 21,2 km/h (4 Bft)
20/04/2012 01:00 6,0 C 86 % 998,3 hPa 0,0 mm 7,6 km/h (2 Bft) S-SO 202 0 min 0 W/m 3,8 C 4,4 C 14,4 km/h (3 Bft)
20/04/2012 01:10 6,1 C 88 % 998,3 hPa 0,0 mm 8,6 km/h (2 Bft) SO 225 0 min 0 W/m 4,3 C 4,3 C 13,3 km/h (3 Bft)
20/04/2012 01:20 6,2 C 88 % 998,6 hPa 0,1 mm 8,3 km/h (2 Bft) SO 225 0 min 0 W/m 4,4 C 4,5 C 11,2 km/h (2 Bft)
20/04/2012 01:30 6,1 C 89 % 998,5 hPa 0,0 mm 7,9 km/h (2 Bft) SO 225 0 min 0 W/m 4,4 C 4,5 C 13,3 km/h (3 Bft)
20/04/2012 01:40 5,9 C 88 % 998,3 hPa 0,2 mm 4,7 km/h (1 Bft) O-SO 247 0 min 0 W/m 4,1 C 5,2 C 6,8 km/h (2 Bft)
20/04/2012 01:50 5,8 C 88 % 998,4 hPa 0,0 mm 6,5 km/h (2 Bft) SO 225 0 min 0 W/m 4,0 C 4,5 C 6,5 km/h (2 Bft)
20/04/2012 02:00 5,5 C 89 % 998,4 hPa 0,0 mm 6,5 km/h (2 Bft) S-SO 202 0 min 0 W/m 3,8 C 4,1 C 10,8 km/h (2 Bft)
20/04/2012 02:10 5,4 C 90 % 998,3 hPa 0,0 mm 5,8 km/h (2 Bft) O-SO 247 0 min 0 W/m 3,9 C 4,2 C 6,1 km/h (2 Bft)
20/04/2012 02:20 5,4 C 90 % 998,3 hPa 0,0 mm 9,0 km/h (2 Bft) SO 225 0 min 0 W/m 3,9 C 3,4 C 12,6 km/h (3 Bft)
20/04/2012 02:30 5,4 C 91 % 998,3 hPa 0,0 mm 6,1 km/h (2 Bft) S-SO 202 0 min 0 W/m 4,1 C 4,2 C 8,6 km/h (2 Bft)
20/04/2012 02:40 5,4 C 91 % 998,3 hPa 0,0 mm 6,1 km/h (2 Bft) S-SO 202 0 min 0 W/m 4,1 C 4,2 C 9,7 km/h (2 Bft)
20/04/2012 02:50 5,4 C 91 % 998,3 hPa 0,0 mm 9,7 km/h (2 Bft) SO 225 0 min 0 W/m 4,1 C 3,2 C 12,6 km/h (3 Bft)
20/04/2012 03:02 5,5 C 91 % 998,3 hPa 0,0 mm 7,2 km/h (2 Bft) O-SO 247 0 min 0 W/m 4,2 C 3,9 C 11,2 km/h (2 Bft)
20/04/2012 03:10 5,7 C 91 % 998,4 hPa 0,0 mm 5,4 km/h (2 Bft) O-SO 247 0 min 0 W/m 4,3 C 4,7 C 9,7 km/h (2 Bft)
20/04/2012 03:20 5,6 C 91 % 998,4 hPa 0,0 mm 5,0 km/h (1 Bft) SO 225 0 min 0 W/m 4,2 C 4,8 C 6,1 km/h (2 Bft)
20/04/2012 03:30 5,6 C 91 % 998,4 hPa 0,1 mm 5,8 km/h (2 Bft) SO 225 0 min 0 W/m 4,2 C 4,5 C 9,4 km/h (2 Bft)
20/04/2012 03:40 5,6 C 91 % 998,4 hPa 0,0 mm 4,3 km/h (1 Bft) S-SO 202 0 min 0 W/m 4,2 C 5,6 C 7,6 km/h (2 Bft)
20/04/2012 03:50 5,6 C 92 % 998,3 hPa 0,1 mm 7,2 km/h (2 Bft) O-SO 247 0 min 0 W/m 4,4 C 4,1 C 10,4 km/h (2 Bft)
20/04/2012 04:00 5,4 C 91 % 998,4 hPa 0,0 mm 6,8 km/h (2 Bft) SO 225 0 min 0 W/m 4,1 C 3,9 C 11,9 km/h (2 Bft)
20/04/2012 04:10 5,3 C 92 % 998,4 hPa 0,0 mm 6,1 km/h (2 Bft) SO 225 0 min 0 W/m 4,1 C 4,0 C 11,2 km/h (2 Bft)
20/04/2012 04:20 5,2 C 92 % 998,5 hPa 0,0 mm 10,1 km/h (2 Bft) S-SO 202 0 min 0 W/m 4,0 C 2,9 C 14,4 km/h (3 Bft)
20/04/2012 04:30 5,1 C 92 % 998,6 hPa 0,0 mm 7,2 km/h (2 Bft) SO 225 0 min 0 W/m 3,9 C 3,5 C 13,3 km/h (3 Bft)
20/04/2012 04:40 5,1 C 92 % 998,5 hPa 0,0 mm 4,0 km/h (1 Bft) SO 225 0 min 0 W/m 3,9 C 5,1 C 7,6 km/h (2 Bft)
20/04/2012 04:50 4,9 C 92 % 998,6 hPa 0,0 mm 4,7 km/h (1 Bft) SO 225 0 min 0 W/m 3,7 C 4,1 C 6,8 km/h (2 Bft)
20/04/2012 05:00 4,8 C 92 % 998,7 hPa 0,0 mm 5,0 km/h (1 Bft) S-SO 202 0 min 0 W/m 3,6 C 3,9 C 9,4 km/h (2 Bft)
20/04/2012 05:10 4,7 C 92 % 998,7 hPa 0,0 mm 1,8 km/h (1 Bft) SO 225 0 min 0 W/m 3,5 C 4,7 C 4,3 km/h (1 Bft)
20/04/2012 05:20 4,6 C 92 % 998,8 hPa 0,0 mm 1,8 km/h (1 Bft) S-SO 202 0 min 0 W/m 3,4 C 4,6 C 4,0 km/h (1 Bft)
20/04/2012 05:30 4,4 C 92 % 998,8 hPa 0,0 mm 3,2 km/h (1 Bft) SO 225 0 min 0 W/m 3,2 C 4,4 C 6,1 km/h (2 Bft)
20/04/2012 05:40 4,3 C 92 % 998,9 hPa 0,0 mm 6,1 km/h (2 Bft) O-SO 247 0 min 0 W/m 3,1 C 2,9 C 11,2 km/h (2 Bft)
20/04/2012 05:50 4,3 C 92 % 998,9 hPa 0,0 mm 5,8 km/h (2 Bft) SO 225 0 min 0 W/m 3,1 C 3,0 C 10,4 km/h (2 Bft)
20/04/2012 06:00 4,2 C 93 % 998,9 hPa 0,0 mm 6,5 km/h (2 Bft) S-SO 202 0 min 0 W/m 3,2 C 2,6 C 9,4 km/h (2 Bft)
20/04/2012 06:10 4,2 C 93 % 999,1 hPa 0,0 mm 3,6 km/h (1 Bft) SO 225 0 min 0 W/m 3,2 C 4,2 C 4,0 km/h (1 Bft)
20/04/2012 06:20 4,1 C 93 % 999,1 hPa 0,0 mm 4,7 km/h (1 Bft) O-SO 247 0 min 0 W/m 3,1 C 3,2 C 4,7 km/h (1 Bft)
20/04/2012 06:30 4,1 C 93 % 999,2 hPa 0,0 mm 1,4 km/h (1 Bft) O-SO 247 0 min 0 W/m 3,1 C 4,1 C 1,4 km/h (1 Bft)
20/04/2012 06:40 4,1 C 93 % 999,3 hPa 0,0 mm 5,0 km/h (1 Bft) SO 225 0 min 0 W/m 3,1 C 3,1 C 6,8 km/h (2 Bft)
20/04/2012 06:50 4,1 C 94 % 999,5 hPa 0,0 mm 2,9 km/h (1 Bft) SO 225 0 min 0 W/m 3,2 C 4,1 C 4,3 km/h (1 Bft)
20/04/2012 07:00 4,3 C 94 % 999,5 hPa 0,0 mm 4,7 km/h (1 Bft) S-SO 202 0 min 0 W/m 3,4 C 3,4 C 8,3 km/h (2 Bft)
20/04/2012 07:10 4,3 C 94 % 999,6 hPa 0,0 mm 1,8 km/h (1 Bft) O-SO 247 0 min 0 W/m 3,4 C 4,3 C 4,3 km/h (1 Bft)
20/04/2012 07:20 4,2 C 94 % 999,7 hPa 0,0 mm 4,0 km/h (1 Bft) SO 225 2 min 0 W/m 3,3 C 4,2 C 7,6 km/h (2 Bft)
20/04/2012 07:30 4,2 C 94 % 999,9 hPa 0,0 mm 2,9 km/h (1 Bft) SO 225 2 min 0 W/m 3,3 C 4,2 C 4,3 km/h (1 Bft)
20/04/2012 07:40 4,4 C 94 % 1000,0 hPa 0,0 mm 4,0 km/h (1 Bft) SO 225 2 min 0 W/m 3,5 C 4,4 C 4,3 km/h (1 Bft)
20/04/2012 07:50 4,8 C 94 % 1000,0 hPa 0,1 mm 8,3 km/h (2 Bft) SO 225 2 min 0 W/m 3,9 C 2,8 C 12,6 km/h (3 Bft)
20/04/2012 08:00 4,8 C 94 % 1000,0 hPa 0,0 mm 6,5 km/h (2 Bft) SO 225 2 min 0 W/m 3,9 C 3,3 C 6,5 km/h (2 Bft)
20/04/2012 08:10 5,1 C 94 % 1000,2 hPa 0,0 mm 5,0 km/h (1 Bft) SO 225 2 min 0 W/m 4,2 C 4,2 C 5,0 km/h (1 Bft)
20/04/2012 08:20 5,3 C 94 % 1000,2 hPa 0,0 mm 4,7 km/h (1 Bft) S-SO 202 2 min 0 W/m 4,4 C 4,5 C 9,0 km/h (2 Bft)
20/04/2012 08:30 5,4 C 94 % 1000,3 hPa 0,0 mm 8,3 km/h (2 Bft) S-SO 202 2 min 0 W/m 4,5 C 3,5 C 12,6 km/h (3 Bft)
20/04/2012 08:40 5,6 C 94 % 1000,4 hPa 0,0 mm 4,7 km/h (1 Bft) SO 225 2 min 0 W/m 4,7 C 4,9 C 8,6 km/h (2 Bft)
20/04/2012 08:50 5,9 C 94 % 1000,4 hPa 0,0 mm 4,0 km/h (1 Bft) SO 225 2 min 0 W/m 5,0 C 5,9 C 7,9 km/h (2 Bft)
20/04/2012 09:00 6,3 C 94 % 1000,6 hPa 0,0 mm 5,4 km/h (2 Bft) SO 225 2 min 0 W/m 5,4 C 5,4 C 7,2 km/h (2 Bft)
20/04/2012 09:10 6,5 C 93 % 1000,7 hPa 0,0 mm 2,9 km/h (1 Bft) SO 225 2 min 0 W/m 5,5 C 6,5 C 7,9 km/h (2 Bft)
20/04/2012 09:20 6,9 C 93 % 1000,8 hPa 0,0 mm 6,1 km/h (2 Bft) S-SO 202 2 min 0 W/m 5,8 C 5,9 C 7,2 km/h (2 Bft)
20/04/2012 09:30 7,3 C 92 % 1000,9 hPa 0,0 mm 6,8 km/h (2 Bft) S-SO 202 2 min 0 W/m 6,1 C 6,1 C 11,2 km/h (2 Bft)
20/04/2012 09:40 7,8 C 91 % 1001,0 hPa 0,0 mm 4,0 km/h (1 Bft) O-SO 247 2 min 0 W/m 6,4 C 7,8 C 14,4 km/h (3 Bft)
20/04/2012 09:50 8,2 C 89 % 1001,1 hPa 0,0 mm 4,0 km/h (1 Bft) SO 225 2 min 0 W/m 6,5 C 8,2 C 4,0 km/h (1 Bft)
20/04/2012 10:00 8,5 C 88 % 1001,2 hPa 0,0 mm 2,5 km/h (1 Bft) S-SO 202 2 min 0 W/m 6,6 C 8,5 C 6,8 km/h (2 Bft)
20/04/2012 10:10 8,8 C 86 % 1001,2 hPa 0,0 mm 2,9 km/h (1 Bft) O-SO 247 2 min 0 W/m 6,6 C 8,8 C 4,3 km/h (1 Bft)
20/04/2012 10:20 9,3 C 84 % 1001,3 hPa 0,0 mm 9,4 km/h (2 Bft) S-SO 202 2 min 0 W/m 6,7 C 7,9 C 15,5 km/h (3 Bft)
20/04/2012 10:30 9,5 C 82 % 1001,4 hPa 0,0 mm 4,3 km/h (1 Bft) O 270 2 min 0 W/m 6,6 C 9,5 C 7,2 km/h (2 Bft)
20/04/2012 10:40 9,8 C 81 % 1001,4 hPa 0,0 mm 2,5 km/h (1 Bft) SO 225 2 min 0 W/m 6,7 C 9,8 C 7,9 km/h (2 Bft)
20/04/2012 10:50 10,0 C 82 % 1001,5 hPa 0,0 mm 4,7 km/h (1 Bft) O 270 2 min 0 W/m 7,1 C 9,8 C 7,6 km/h (2 Bft)
20/04/2012 11:00 10,4 C 79 % 1001,4 hPa 0,0 mm 4,7 km/h (1 Bft) NO 315 2 min 0 W/m 6,9 C 10,4 C 4,7 km/h (1 Bft)
20/04/2012 11:10 10,8 C 75 % 1001,4 hPa 0,0 mm 5,0 km/h (1 Bft) S-SO 202 2 min 0 W/m 6,5 C 10,8 C 6,8 km/h (2 Bft)
20/04/2012 11:20 10,3 C 76 % 1001,4 hPa 0,0 mm 12,2 km/h (2 Bft) S-SO 202 2 min 0 W/m 6,3 C 10,3 C 15,8 km/h (3 Bft)
20/04/2012 11:30 10,0 C 77 % 1001,4 hPa 0,0 mm 3,2 km/h (1 Bft) S-SO 202 2 min 0 W/m 6,2 C 10,0 C 3,6 km/h (1 Bft)
20/04/2012 11:40 10,4 C 76 % 1001,5 hPa 0,0 mm 5,0 km/h (1 Bft) SO 225 2 min 0 W/m 6,4 C 10,4 C 14,0 km/h (3 Bft)
20/04/2012 11:50 10,9 C 73 % 1001,5 hPa 0,0 mm 7,2 km/h (2 Bft) SO 225 2 min 0 W/m 6,3 C 10,9 C 14,8 km/h (3 Bft)
20/04/2012 12:00 11,2 C 75 % 1001,6 hPa 0,0 mm 6,5 km/h (2 Bft) O-NO 292 2 min 0 W/m 6,9 C 11,2 C 10,4 km/h (2 Bft)
20/04/2012 12:10 10,9 C 72 % 1001,6 hPa 0,0 mm 5,0 km/h (1 Bft) SO 225 2 min 0 W/m 6,1 C 10,9 C 9,0 km/h (2 Bft)
20/04/2012 12:20 10,9 C 75 % 1001,5 hPa 0,0 mm 9,7 km/h (2 Bft) S-SO 202 2 min 0 W/m 6,6 C 10,9 C 14,0 km/h (3 Bft)
20/04/2012 12:30 11,5 C 75 % 1001,3 hPa 0,0 mm 5,0 km/h (1 Bft) S 180 2 min 0 W/m 7,2 C 11,5 C 7,9 km/h (2 Bft)
20/04/2012 12:40 12,1 C 71 % 1001,5 hPa 0,0 mm 6,8 km/h (2 Bft) O 270 2 min 0 W/m 7,0 C 12,1 C 12,6 km/h (3 Bft)
20/04/2012 12:50 12,1 C 69 % 1001,4 hPa 0,0 mm 10,4 km/h (2 Bft) S 180 2 min 0 W/m 6,6 C 12,1 C 10,4 km/h (2 Bft)
20/04/2012 13:00 11,8 C 70 % 1001,5 hPa 0,0 mm 5,4 km/h (2 Bft) O-SO 247 2 min 0 W/m 6,5 C 11,8 C 5,4 km/h (2 Bft)
20/04/2012 13:10 11,4 C 72 % 1001,5 hPa 0,0 mm 3,2 km/h (1 Bft) O-SO 247 2 min 0 W/m 6,5 C 11,4 C 6,8 km/h (2 Bft)
20/04/2012 13:20 11,4 C 73 % 1001,6 hPa 0,0 mm 3,6 km/h (1 Bft) S-SO 202 2 min 0 W/m 6,7 C 11,4 C 7,9 km/h (2 Bft)
20/04/2012 13:30 10,5 C 76 % 1001,8 hPa 0,4 mm 9,4 km/h (2 Bft) S-SO 202 2 min 0 W/m 6,5 C 10,5 C 14,8 km/h (3 Bft)
20/04/2012 13:40 8,9 C 80 % 1001,8 hPa 0,2 mm 2,9 km/h (1 Bft) SO 225 2 min 0 W/m 5,6 C 8,9 C 3,6 km/h (1 Bft)
20/04/2012 13:50 8,8 C 85 % 1001,8 hPa 0,0 mm 4,0 km/h (1 Bft) SO 225 2 min 0 W/m 6,4 C 8,8 C 7,6 km/h (2 Bft)
20/04/2012 14:00 9,4 C 85 % 1001,8 hPa 0,0 mm 4,0 km/h (1 Bft) SO 225 2 min 0 W/m 7,0 C 9,4 C 5,0 km/h (1 Bft)
20/04/2012 14:10 10,1 C 84 % 1001,6 hPa 0,0 mm 2,5 km/h (1 Bft) SO 225 2 min 0 W/m 7,5 C 10,1 C 2,5 km/h (1 Bft)
20/04/2012 14:20 10,5 C 82 % 1001,6 hPa 0,0 mm 7,2 km/h (2 Bft) SO 225 2 min 0 W/m 7,6 C 10,5 C 8,6 km/h (2 Bft)
20/04/2012 14:30 10,8 C 83 % 1001,5 hPa 0,0 mm 0,4 km/h (0 Bft) O 270 2 min 0 W/m 8,0 C 10,8 C 3,2 km/h (1 Bft)
20/04/2012 14:40 11,6 C 81 % 1001,4 hPa 0,0 mm 4,7 km/h (1 Bft) SO 225 2 min 0 W/m 8,5 C 11,6 C 5,8 km/h (2 Bft)
20/04/2012 14:50 11,8 C 78 % 1001,3 hPa 0,0 mm 2,2 km/h (1 Bft) SO 225 2 min 0 W/m 8,1 C 11,8 C 4,3 km/h (1 Bft)
20/04/2012 15:00 11,6 C 76 % 1001,4 hPa 0,2 mm 17,6 km/h (3 Bft) S 180 2 min 0 W/m 7,5 C 11,6 C 31,3 km/h (5 Bft)
20/04/2012 15:10 10,8 C 82 % 1001,3 hPa 0,0 mm 11,5 km/h (2 Bft) SO 225 2 min 0 W/m 7,9 C 10,8 C 14,8 km/h (3 Bft)
20/04/2012 15:20 11,3 C 83 % 1001,3 hPa 0,0 mm 10,1 km/h (2 Bft) S-SO 202 2 min 0 W/m 8,5 C 11,3 C 17,6 km/h (3 Bft)
20/04/2012 15:30 11,7 C 78 % 1001,3 hPa 0,0 mm 9,4 km/h (2 Bft) O 270 2 min 0 W/m 8,0 C 11,7 C 12,6 km/h (3 Bft)
20/04/2012 15:40 12,0 C 77 % 1001,1 hPa 0,0 mm 15,1 km/h (3 Bft) S-SO 202 2 min 0 W/m 8,1 C 12,0 C 16,6 km/h (3 Bft)
20/04/2012 15:50 12,2 C 75 % 1001,0 hPa 0,0 mm 4,0 km/h (1 Bft) SO 225 2 min 0 W/m 7,9 C 12,2 C 7,6 km/h (2 Bft)
20/04/2012 16:00 12,1 C 71 % 1001,1 hPa 0,0 mm 16,9 km/h (3 Bft) SO 225 2 min 0 W/m 7,0 C 12,1 C 22,0 km/h (4 Bft)
20/04/2012 16:10 12,0 C 69 % 1001,2 hPa 0,0 mm 5,0 km/h (1 Bft) S-SO 202 2 min 0 W/m 6,5 C 12,0 C 7,2 km/h (2 Bft)
20/04/2012 16:20 10,9 C 78 % 1001,5 hPa 0,4 mm 7,9 km/h (2 Bft) S-SO 202 2 min 0 W/m 7,2 C 10,9 C 13,7 km/h (3 Bft)
20/04/2012 16:30 9,9 C 85 % 1001,6 hPa 0,0 mm 8,6 km/h (2 Bft) S-SO 202 2 min 0 W/m 7,5 C 8,8 C 13,3 km/h (3 Bft)
20/04/2012 16:40 10,2 C 87 % 1001,4 hPa 0,0 mm 9,0 km/h (2 Bft) SO 225 2 min 0 W/m 8,1 C 10,2 C 9,0 km/h (2 Bft)
20/04/2012 16:50 10,6 C 83 % 1001,3 hPa 0,0 mm 9,7 km/h (2 Bft) SO 225 2 min 0 W/m 7,8 C 10,6 C 11,2 km/h (2 Bft)
20/04/2012 17:00 10,8 C 83 % 1001,2 hPa 0,0 mm 2,2 km/h (1 Bft) S-SO 202 2 min 0 W/m 8,0 C 10,8 C 4,0 km/h (1 Bft)
20/04/2012 17:10 10,9 C 81 % 1001,2 hPa 0,0 mm 4,7 km/h (1 Bft) S-SO 202 2 min 0 W/m 7,8 C 10,9 C 7,6 km/h (2 Bft)
20/04/2012 17:20 10,9 C 79 % 1001,2 hPa 0,0 mm 7,6 km/h (2 Bft) SO 225 2 min 0 W/m 7,4 C 10,9 C 11,5 km/h (2 Bft)
20/04/2012 17:30 10,9 C 80 % 1001,3 hPa 0,1 mm 7,9 km/h (2 Bft) S-SO 202 2 min 0 W/m 7,6 C 10,9 C 7,9 km/h (2 Bft)
20/04/2012 17:40 11,1 C 83 % 1001,1 hPa 0,0 mm 8,3 km/h (2 Bft) SO 225 2 min 0 W/m 8,3 C 11,1 C 12,6 km/h (3 Bft)
20/04/2012 17:50 11,1 C 80 % 1001,0 hPa 0,0 mm 12,6 km/h (3 Bft) SO 225 2 min 0 W/m 7,8 C 11,1 C 12,6 km/h (3 Bft)
20/04/2012 18:00 10,8 C 83 % 1001,1 hPa 0,1 mm 11,9 km/h (2 Bft) SO 225 2 min 0 W/m 8,0 C 10,8 C 19,8 km/h (3 Bft)
20/04/2012 18:10 10,9 C 83 % 1001,2 hPa 0,0 mm 4,3 km/h (1 Bft) SO 225 2 min 0 W/m 8,1 C 10,9 C 7,9 km/h (2 Bft)
20/04/2012 18:20 10,9 C 79 % 1001,2 hPa 0,0 mm 21,6 km/h (4 Bft) SO 225 2 min 0 W/m 7,4 C 10,9 C 28,8 km/h (5 Bft)
20/04/2012 18:30 10,6 C 78 % 1001,3 hPa 0,0 mm 9,4 km/h (2 Bft) SO 225 2 min 0 W/m 6,9 C 10,6 C 19,1 km/h (3 Bft)
20/04/2012 18:40 10,8 C 79 % 1001,4 hPa 0,0 mm 6,1 km/h (2 Bft) S-SE 157 2 min 0 W/m 7,3 C 10,8 C 12,2 km/h (2 Bft)
20/04/2012 18:50 10,9 C 77 % 1001,5 hPa 0,0 mm 5,4 km/h (2 Bft) O-SO 247 2 min 0 W/m 7,0 C 10,9 C 8,3 km/h (2 Bft)
20/04/2012 19:00 10,9 C 77 % 1001,6 hPa 0,0 mm 5,4 km/h (2 Bft) S-SO 202 2 min 0 W/m 7,0 C 10,9 C 8,3 km/h (2 Bft)
20/04/2012 19:10 10,6 C 76 % 1001,7 hPa 0,0 mm 8,3 km/h (2 Bft) SO 225 2 min 0 W/m 6,5 C 10,6 C 21,2 km/h (4 Bft)
20/04/2012 19:20 10,6 C 77 % 1001,7 hPa 0,0 mm 13,0 km/h (3 Bft) S-SO 202 2 min 0 W/m 6,7 C 10,6 C 17,6 km/h (3 Bft)
20/04/2012 19:30 10,4 C 78 % 1001,8 hPa 0,0 mm 5,0 km/h (1 Bft) SO 225 2 min 0 W/m 6,7 C 10,4 C 8,6 km/h (2 Bft)
20/04/2012 19:40 10,3 C 80 % 1001,9 hPa 0,0 mm 2,5 km/h (1 Bft) S-SO 202 2 min 0 W/m 7,0 C 10,3 C 7,2 km/h (2 Bft)
20/04/2012 19:50 10,1 C 80 % 1002,0 hPa 0,0 mm 9,7 km/h (2 Bft) S-SO 202 2 min 0 W/m 6,8 C 10,1 C 13,0 km/h (3 Bft)
20/04/2012 20:00 10,1 C 79 % 1002,1 hPa 0,0 mm 1,8 km/h (1 Bft) S-SO 202 2 min 0 W/m 6,6 C 10,1 C 4,0 km/h (1 Bft)
20/04/2012 20:10 10,1 C 78 % 1002,1 hPa 0,0 mm 5,8 km/h (2 Bft) SO 225 2 min 0 W/m 6,4 C 10,1 C 6,5 km/h (2 Bft)
20/04/2012 20:20 10,1 C 78 % 1002,2 hPa 0,0 mm 6,5 km/h (2 Bft) S 180 2 min 0 W/m 6,4 C 10,1 C 16,2 km/h (3 Bft)
20/04/2012 20:30 9,9 C 78 % 1002,4 hPa 0,0 mm 4,3 km/h (1 Bft) SO 225 2 min 0 W/m 6,2 C 9,9 C 4,3 km/h (1 Bft)
20/04/2012 20:40 9,8 C 78 % 1002,5 hPa 0,0 mm 6,1 km/h (2 Bft) SO 225 2 min 0 W/m 6,1 C 9,2 C 11,2 km/h (2 Bft)
20/04/2012 20:50 9,4 C 77 % 1002,6 hPa 0,0 mm 14,4 km/h (3 Bft) SO 225 0 min 0 W/m 5,6 C 7,3 C 27,4 km/h (5 Bft)
20/04/2012 21:00 9,0 C 78 % 1002,7 hPa 0,0 mm 7,9 km/h (2 Bft) SO 225 0 min 0 W/m 5,4 C 7,9 C 7,9 km/h (2 Bft)
20/04/2012 21:10 8,6 C 80 % 1003,1 hPa 0,0 mm 11,2 km/h (2 Bft) SO 225 0 min 0 W/m 5,3 C 6,7 C 15,8 km/h (3 Bft)
20/04/2012 21:20 8,3 C 81 % 1003,1 hPa 0,0 mm 9,0 km/h (2 Bft) S-SO 202 0 min 0 W/m 5,2 C 6,8 C 11,9 km/h (2 Bft)
20/04/2012 21:30 8,1 C 82 % 1003,4 hPa 0,0 mm 4,7 km/h (1 Bft) S-SO 202 0 min 0 W/m 5,2 C 7,7 C 9,0 km/h (2 Bft)
20/04/2012 21:40 8,0 C 84 % 1003,6 hPa 0,0 mm 6,5 km/h (2 Bft) SO 225 0 min 0 W/m 5,5 C 7,0 C 11,2 km/h (2 Bft)
20/04/2012 21:50 7,9 C 84 % 1003,7 hPa 0,0 mm 4,7 km/h (1 Bft) O-SO 247 0 min 0 W/m 5,4 C 7,5 C 4,7 km/h (1 Bft)
20/04/2012 22:00 7,8 C 85 % 1003,8 hPa 0,0 mm 4,7 km/h (1 Bft) SO 225 0 min 0 W/m 5,4 C 7,4 C 9,7 km/h (2 Bft)
20/04/2012 22:10 7,6 C 86 % 1004,0 hPa 0,0 mm 10,1 km/h (2 Bft) SO 225 0 min 0 W/m 5,4 C 5,7 C 14,4 km/h (3 Bft)
20/04/2012 22:20 7,5 C 87 % 1004,0 hPa 0,0 mm 4,0 km/h (1 Bft) S-SO 202 0 min 0 W/m 5,5 C 7,5 C 5,8 km/h (2 Bft)
20/04/2012 22:30 7,4 C 87 % 1004,0 hPa 0,0 mm 6,5 km/h (2 Bft) S-SO 202 0 min 0 W/m 5,4 C 6,3 C 8,6 km/h (2 Bft)
20/04/2012 22:40 7,4 C 87 % 1004,2 hPa 0,0 mm 8,3 km/h (2 Bft) S-SO 202 0 min 0 W/m 5,4 C 5,9 C 8,3 km/h (2 Bft)
20/04/2012 22:50 7,4 C 87 % 1004,3 hPa 0,0 mm 7,2 km/h (2 Bft) SO 225 0 min 0 W/m 5,4 C 6,1 C 8,6 km/h (2 Bft)
20/04/2012 23:00 7,4 C 88 % 1004,3 hPa 0,0 mm 5,8 km/h (2 Bft) O-SO 247 0 min 0 W/m 5,5 C 6,5 C 5,8 km/h (2 Bft)
20/04/2012 23:10 7,4 C 88 % 1004,2 hPa 0,0 mm 6,8 km/h (2 Bft) S-SO 202 0 min 0 W/m 5,5 C 6,3 C 10,4 km/h (2 Bft)
20/04/2012 23:20 7,6 C 88 % 1004,2 hPa 0,0 mm 7,2 km/h (2 Bft) SO 225 0 min 0 W/m 5,7 C 6,4 C 9,7 km/h (2 Bft)
20/04/2012 23:30 7,6 C 88 % 1004,2 hPa 0,0 mm 8,6 km/h (2 Bft) SO 225 0 min 0 W/m 5,7 C 6,1 C 8,6 km/h (2 Bft)
20/04/2012 23:40 7,8 C 88 % 1004,2 hPa 0,0 mm 9,4 km/h (2 Bft) S-SO 202 0 min 0 W/m 5,9 C 6,1 C 13,0 km/h (3 Bft)
20/04/2012 23:50 7,8 C 88 % 1004,3 hPa 0,0 mm 6,8 km/h (2 Bft) SO 225 0 min 0 W/m 5,9 C 6,7 C 6,8 km/h (2 Bft)
_ Min-Heure 06:50 16:10 00:50 - 14:30 - - - - 06:40 06:00 06:30
Minimum _ 4,1 C 69 % 998,2 hPa - 0,4 km/h (0 Bft) - - - - 3,1 C 2,6 C 1,4 km/h (1 Bft)
_ Max-Heure 15:50 09:00 23:50 16:20 18:20 - - 20:40 23:50 15:20 15:50 15:00
Maximum _ 12,2 C 94 % 1004,3 hPa 0,4 mm 21,6 km/h
SO (4 Bft)
- - 2 min 0 W/m 8,5 C 12,2 C 31,3 km/h
S (5 Bft)
Moyenne _ 8,1 C 85 % 1000,8 hPa #2,1 mm 6,6 km/h (2 Bft) SO - #2:42 h 0 W/m 5,6 C 7,5 C 10,0 km/h (2 Bft)
Saint Bonnet de Bellac- Haute Vienne - France